FOX-1A (AO-85)

Last updated on Thu Nov 21 2024 00:03:02 GMT+0000 (Coordinated Universal Time)

1 40967U 15058D 24325.26760492 .00006734 00000+0 59082-3 0 9993 2 40967 64.7766 256.0470 0186252 257.1826 100.8416 14.84980103 28146
UTC large
Height (km)
Speed (km/s)
/
Latitude / Longitude
Inclination (degrees)
Orbital Period (minutes)
Azimuth
Elevation
Range (km)
Doppler Factor

Next 0 passes for location: London (51.5072 / 0.1276)

Sorry there are no passes over London.